Location: Izdebnik
(49.8699°N, 19.7619°E)
Time: 01:09:02
(UTC+01:00)

ISS - Pass Details

Date: 25 January 2019
Orbit: 403 x 411 km, 51.6° (Epoch: 19 February)

Event Time Altitude Azimuth Distance (km) Brightness Sun altitude
Rises 16:53:37 0° 194° (SSW) 2,320 0.6 -5.2°
Reaches altitude 10° 16:56:37 10° 163° (SSE) 1,468 -0.9 -5.7°
Maximum altitude 16:58:06 13° 136° (SE) 1,327 -1.4 -5.9°
Drops below altitude 10° 16:59:35 10° 110° (ESE) 1,475 -1.4 -6.1°
Enters shadow 17:00:52 - 93° (E) 1,783 -1.1 -6.3°
